Location: Unspecified
(41.5516°N, 88.1098°W)
Time: 05:00:34
(UTC-05:00)

Cosmos 2058 - Visible Passes

Search period start: 17 April 2014 00:00
Search period end: 27 April 2014 00:00
Orbit: 572 x 595 km, 82.5° (Epoch: 16 April)

Date Brightness Start Highest point End Pass type
(mag) Time Alt. Az. Time Alt. Az. Time Alt. Az.
17 Apr 5.9 05:06:57 10° SE 05:09:57 19° E 05:12:58 10° NE visible
18 Apr 5.3 05:12:29 10° SSE 05:16:03 27° E 05:19:37 10° NNE visible
19 Apr 4.6 05:18:14 10° SSE 05:22:09 38° E 05:26:07 10° NNE visible
20 Apr 3.8 05:24:09 10° S 05:28:18 55° E 05:32:28 10° NNE visible
21 Apr 3.1 05:30:12 10° S 05:34:27 81° E 05:38:44 10° N visible
23 Apr 5.9 04:08:06 10° ESE 04:10:12 14° E 04:12:18 10° NE visible
24 Apr 5.6 04:13:13 10° SE 04:16:14 19° E 04:19:15 10° NE visible
25 Apr 5.1 04:18:43 10° SSE 04:22:17 27° E 04:25:52 10° NNE visible
26 Apr 4.4 04:24:26 10° SSE 04:28:21 38° E 04:32:18 10° NNE visible
